Regional Weather Roundup
Issued by NWS

Home | Current Version | Previous Version | Text Only | Print | Product List | Glossary Off
Versions: 1 2 3 4 5 6 7 8 9 10 11 12 13 14 15 16 17 18 19 20 21 22 23 24 25 26 27 28 29 30 31 32 33 34 35 36 37 38 39 40 41 42 43 44 45 46 47 48 49 50

248
ASUS45 KBOI 231010
RWRID

IDAHO REGIONAL WEATHER ROUNDUP
NATIONAL WEATHER SERVICE BOISE ID
400 AM MDT SUN APR 23 2017

NOTE: "FAIR" INDICATES FEW OR NO CLOUDS BELOW 12000 FEET
WITH NO SIGNIFICANT WEATHER AND/OR OBSTRUCTIONS TO VISIBILITY

IDZ012-014-231100-
SOUTHWEST IDAHO


CITY           SKY/WX    TMP DP  RH WIND       PRES   REMARKS
BOISE          FAIR      56  39  53 SE10      29.81F
CALDWELL       FAIR      51  40  65 N5        29.81F
MOUNTAIN HOME  FAIR      50  47  91 E12       29.82F
$$

IDZ016-017-231100-
SOUTHCENTRAL IDAHO


CITY           SKY/WX    TMP DP  RH WIND       PRES   REMARKS
BURLEY         CLOUDY    50  38  63 VRB3      29.89S
JEROME         LGT RAIN  49  42  77 CALM      29.90F
TWIN FALLS     LGT RAIN  49  43  80 SW10      29.91R
$$

IDZ019>023-231100-
SOUTHEAST IDAHO


CITY           SKY/WX    TMP DP  RH WIND       PRES   REMARKS
IDAHO FALLS    CLOUDY    43  35  73 N6        29.93R
POCATELLO      CLOUDY    49  31  49 SW12      29.91R
REXBURG        CLOUDY    40  35  83 CALM      29.93F
$$

IDZ006-010-011-018-031-032-231100-
CENTRAL IDAHO MOUNTAINS


CITY           SKY/WX    TMP DP  RH WIND       PRES   REMARKS
MCCALL         LGT RAIN  41  38  89 NE5       29.86F
HAILEY         LGT RAIN  43  32  65 W5        29.96S
STANLEY          N/A     38  31  76 CALM      29.95R
SALMON         CLOUDY   N/A N/A N/A MISG        N/A
CHALLIS        CLOUDY    41  27  57 NE3       29.86F
$$

IDZ002-004-006-007-026-231100-
NORTHERN IDAHO


CITY           SKY/WX    TMP DP  RH WIND       PRES   REMARKS
LEWISTON       CLOUDY    50  45  83 S3        29.91S
LOWELL           N/A     49  44  83 CALM      29.89F
COEUR D`ALENE  FAIR      46  39  76 S7        29.87F
MULLAN PASS    CLOUDY    35  30  82 S5        29.87F WCI  31
$$




USA.gov is the U.S. government's official web portal to all federal, state and local government web resources and services.